Meath Environmental Platform

Observations for Trim Market St

Time AQI Temp °C Hum % Pres Pa CO μg/m³ H₂S μg/m³ NO μg/m³ NO₂ μg/m³ O₃ μg/m³ SO₂ μg/m³ PM1 μg/m³ PM2.5 μg/m³ PM10 μg/m³
Friday 14 August 2026
06:35 2 20.7 77 2,147,483,647 0 0 1.9 1.89 54.04 0 0 0.82 2.85
06:34 2 20.8 77 2,147,483,647 0 0 1.81 11.43 49.84 0 0 0.82 2.85
06:33 2 20.8 77 2,147,483,647 0 0 1.69 0.27 50.7 0 0 0.82 2.85
06:32 2 20.8 77 2,147,483,647 0 0 1.53 3.03 51.79 0 0 0.82 2.85
06:31 2 20.8 77 2,147,483,647 0 0 1.38 0.44 43.9 0 0 0.81 2.86
06:30 2 20.9 77 2,147,483,647 0 0 1.38 0 42.99 0 0 0.81 2.86
06:29 2 20.9 77 2,147,483,647 0 0 1.39 0 51.86 0 0 0.81 2.86
06:28 2 20.9 77 2,147,483,647 0 0 1.38 5.28 56.07 0 0 0.81 2.86
06:27 2 20.9 77 2,147,483,647 0 0 1.35 2.72 53.83 0 0 0.8 2.87
06:26 2 20.9 77 2,147,483,647 0 0 1.27 0 49.98 0 0 0.8 2.87
06:20 2 21.1 77 2,147,483,647 0 0 1.42 10.73 53.77 0 0 0.81 2.86
06:18 2 21.2 77 2,147,483,647 0 0 1.48 6.92 53.16 0 0 0.81 2.86
06:15 2 21.3 77 2,147,483,647 0 0 1.37 11.12 59.02 0 0 0.82 2.84
06:13 2 21.4 77 1,414 0 0 1.35 13.24 54.2 0 0 0.82 2.84
06:08 2 21.4 76 11,656 0 0 1.16 14.67 55.54 0 0 0.85 2.81
06:07 2 21.5 76 13,689 0 0 1.16 1.89 53.98 0 0 0.86 2.81
06:06 2 21.5 76 15,363 0 0 1.15 3.26 52.78 0 0 0.86 2.81
06:05 2 21.5 76 17,109 0 0 1.13 12.2 54.99 0 0 0.86 2.8
06:03 2 21.5 76 20,775 0 0 1.18 2.05 55.34 0 0 0.87 2.79
06:02 2 21.6 76 22,589 0 0 1.29 9.82 55.58 0 0 0.88 2.78